GW2765 Weather Reports


Display with metric or nautical units.
time (UTC)temp
F
wind
direction
speed
MPH
gust
MPH
rain 1hr
in
rain 24hr
in
rain mn
in
humidity
%
barometer
mb
20260510093542 74 170 0.0 0.0 0.00 0.00 0.00 50 1008.4
20260510093042 74 170 0.0 0.0 0.00 0.00 0.00 51 1008.3
20260510092540 74 174 0.0 0.0 0.00 0.00 0.00 50 1008.4
20260510092039 74 174 0.0 0.0 0.00 0.00 0.00 50 1008.4
20260510091539 74 174 0.0 0.0 0.00 0.00 0.00 51 1008.4
20260510091041 74 146 0.0 0.0 0.00 0.00 0.00 51 1008.4
20260510090540 74 146 0.0 0.0 0.00 0.00 0.00 50 1008.4
20260510090307 75 146 0.0 1.0 0.00 0.00 0.00 50 1008.3
20260510085820 75 146 0.0 1.0 0.00 0.00 0.00 49 1008.4
20260510085039 75 124 0.0 1.0 0.00 0.00 0.00 49 1008.4
20260510084541 75 205 0.0 0.0 0.00 0.00 0.00 49 1008.3
20260510084036 76 205 0.0 0.0 0.00 0.00 0.00 49 1008.3
20260510083537 75 205 0.0 1.0 0.00 0.00 0.00 49 1008.3
20260510083036 76 207 0.0 1.0 0.00 0.00 0.00 49 1008.2
20260510082535 76 208 0.0 1.0 0.00 0.00 0.00 49 1008.3
20260510082035 76 174 0.0 1.0 0.00 0.00 0.00 49 1008.4
20260510081536 76 174 0.0 1.0 0.00 0.00 0.00 49 1008.5
20260510081306 76 150 0.0 0.0 0.00 0.00 0.00 47 1008.4
20260510080536 76 150 0.0 0.0 0.00 0.00 0.00 47 1008.4
20260510080038 77 150 0.0 0.0 0.00 0.00 0.00 46 1008.5
20260510075535 77 150 0.0 0.0 0.00 0.00 0.00 45 1008.4
20260510075033 78 150 0.0 0.0 0.00 0.00 0.00 45 1008.4
20260510074532 78 150 0.0 0.0 0.00 0.00 0.00 45 1008.4
20260510074031 78 166 0.0 0.0 0.00 0.00 0.00 45 1008.4
20260510073532 78 166 0.0 0.0 0.00 0.00 0.00 44 1008.4
20260510072531 79 166 0.0 1.0 0.00 0.00 0.00 43 1008.5
20260510072031 79 167 0.0 1.0 0.00 0.00 0.00 42 1008.5
20260510071535 79 176 0.0 2.0 0.00 0.00 0.00 42 1008.5
20260510071029 79 189 0.0 2.0 0.00 0.00 0.00 43 1008.4
20260510070529 79 172 0.0 2.0 0.00 0.00 0.00 43 1008.4
20260510070030 79 176 0.0 1.0 0.00 0.00 0.00 43 1008.3
20260510065530 79 161 1.0 2.0 0.00 0.00 0.00 43 1008.4
20260510065029 80 169 1.0 2.0 0.00 0.00 0.00 43 1008.3
20260510064529 79 183 0.0 2.0 0.00 0.00 0.00 43 1008.3
20260510064030 79 158 0.0 1.0 0.00 0.00 0.00 43 1008.4
20260510063029 80 358 0.0 0.0 0.00 0.00 0.00 40 1008.3
20260510062529 80 358 0.0 0.0 0.00 0.00 0.00 40 1008.2
20260510062029 81 340 0.0 1.0 0.00 0.00 0.00 39 1008.2
20260510061529 81 335 0.0 1.0 0.00 0.00 0.00 40 1008.2
20260510061030 81 110 0.0 0.0 0.00 0.00 0.00 39 1008.2
20260510060528 82 110 0.0 1.0 0.00 0.00 0.00 39 1008.1
20260510060031 82 110 0.0 1.0 0.00 0.00 0.00 39 1008.2
20260510055530 82 110 0.0 1.0 0.00 0.00 0.00 41 1008.2
20260510055029 83 111 0.0 1.0 0.00 0.00 0.00 40 1008.1
20260510054529 83 110 0.0 1.0 0.00 0.00 0.00 38 1008.1
20260510054029 83 115 0.0 1.0 0.00 0.00 0.00 40 1008.1
20260510053529 83 156 1.0 3.0 0.00 0.00 0.00 40 1008.1
20260510053030 84 94 1.0 3.0 0.00 0.00 0.00 39 1008.1
20260510052540 84 184 1.0 3.0 0.00 0.00 0.00 39 1008.0
20260510051530 84 137 0.0 3.0 0.00 0.00 0.00 39 1008.0
20260510051030 85 163 0.0 3.0 0.00 0.00 0.00 39 1007.9
20260510050529 85 186 0.0 1.0 0.00 0.00 0.00 39 1007.9
20260510050029 85 146 0.0 1.0 0.00 0.00 0.00 38 1007.9
20260510045529 85 146 0.0 2.0 0.00 0.00 0.00 38 1007.9
20260510045300 86 165 0.0 2.0 0.00 0.00 0.00 37 1007.8
20260510044529 86 117 0.0 2.0 0.00 0.00 0.00 37 1007.7
20260510044029 87 105 0.0 0.0 0.00 0.00 0.00 35 1007.7
20260510043526 87 105 0.0 0.0 0.00 0.00 0.00 35 1007.6
20260510043020 87 105 0.0 0.0 0.00 0.00 0.00 34 1007.6
20260510042517 87 75 0.0 0.0 0.00 0.00 0.00 34 1007.5
20260510042008 88 75 0.0 1.0 0.00 0.00 0.00 33 1007.4
20260510041502 89 73 0.0 1.0 0.00 0.00 0.00 33 1007.2
20260510040956 89 81 0.0 0.0 0.00 0.00 0.00 32 1007.2
20260510040719 89 111 0.0 0.0 0.00 0.00 0.00 31 1007.2
20260510035944 90 99 0.0 1.0 0.00 0.00 0.00 31 1007.1
20260510035438 90 100 0.0 3.0 0.00 0.00 0.00 31 1007.1
20260510034933 90 68 1.0 3.0 0.00 0.00 0.00 30 1007.0
20260510034430 90 48 0.0 3.0 0.00 0.00 0.00 30 1006.9
20260510033931 91 339 1.0 3.0 0.00 0.00 0.00 30 1006.8
20260510033430 91 83 1.0 3.0 0.00 0.00 0.00 30 1006.7
20260510032931 91 50 0.0 3.0 0.00 0.00 0.00 29 1006.7
20260510032429 91 57 0.0 1.0 0.00 0.00 0.00 29 1006.6
20260510031930 92 6 0.0 3.0 0.00 0.00 0.00 29 1006.5
20260510031704 92 11 1.0 4.0 0.00 0.00 0.00 28 1006.5
20260510030929 93 358 1.0 6.0 0.00 0.00 0.00 28 1006.3
20260510030429 93 331 1.0 7.0 0.00 0.00 0.00 27 1006.3
20260510025929 93 315 2.0 7.0 0.00 0.00 0.00 27 1006.2
20260510024929 94 345 2.0 7.0 0.00 0.00 0.00 26 1006.2
20260510024429 94 352 1.0 5.0 0.00 0.00 0.00 26 1006.1
20260510023930 94 303 1.0 5.0 0.00 0.00 0.00 24 1006.0
20260510023430 95 291 1.0 5.0 0.00 0.00 0.00 24 1005.9
20260510022929 95 5 1.0 5.0 0.00 0.00 0.00 24 1005.8
20260510022429 96 321 1.0 6.0 0.00 0.00 0.00 24 1005.8
20260510022203 96 295 2.0 6.0 0.00 0.00 0.00 23 1005.7
20260510021420 97 338 2.0 6.0 0.00 0.00 0.00 23 1005.7
20260510020915 97 348 1.0 5.0 0.00 0.00 0.00 22 1005.7
20260510020636 98 307 2.0 9.0 0.00 0.00 0.00 21 1005.6
20260510015902 99 342 3.0 9.0 0.00 0.00 0.00 21 1005.6
20260510015632 99 330 3.0 9.0 0.00 0.00 0.00 21 1005.5
20260510015145 100 326 2.0 7.0 0.00 0.00 0.00 20 1005.5
20260510014402 100 332 3.0 7.0 0.00 0.00 0.00 20 1005.5
20260510013901 100 338 4.0 9.0 0.00 0.00 0.00 20 1005.4
20260510013402 100 300 4.0 9.0 0.00 0.00 0.00 19 1005.4
20260510012903 101 349 3.0 7.0 0.00 0.00 0.00 19 1005.5
20260510012401 102 13 3.0 8.0 0.00 0.00 0.00 19 1005.4
20260510011902 102 345 2.0 8.0 0.00 0.00 0.00 18 1005.4
20260510011402 102 349 2.0 6.0 0.00 0.00 0.00 18 1005.4
20260510010903 102 11 3.0 7.0 0.00 0.00 0.00 18 1005.4
20260510010403 102 314 3.0 7.0 0.00 0.00 0.00 17 1005.4
20260510005902 103 330 2.0 7.0 0.00 0.00 0.00 18 1005.4
20260510005401 103 323 2.0 5.0 0.00 0.00 0.00 17 1005.4
20260510004901 103 29 2.0 6.0 0.00 0.00 0.00 16 1005.3
20260510003903 103 345 3.0 7.0 0.00 0.00 0.00 16 1005.4
20260510003401 103 8 3.0 7.0 0.00 0.00 0.00 16 1005.4
20260510002902 104 60 2.0 7.0 0.00 0.00 0.00 15 1005.4
20260510002401 104 46 2.0 5.0 0.00 0.00 0.00 15 1005.4
20260510001901 104 352 2.0 7.0 0.00 0.00 0.00 15 1005.5
20260510001401 103 342 3.0 7.0 0.00 0.00 0.00 15 1005.5
20260510000902 103 339 3.0 8.0 0.00 0.00 0.00 15 1005.5
20260510000626 104 323 3.0 8.0 0.00 0.00 0.00 14 1005.5
20260509235903 105 344 3.0 8.0 0.00 0.00 0.00 14 1005.6
20260509235401 105 40 2.0 6.0 0.00 0.00 0.00 14 1005.7
20260509234902 106 257 1.0 5.0 0.00 0.00 0.00 13 1005.7
20260509234401 105 147 1.0 4.0 0.00 0.00 0.00 12 1005.7
20260509234137 105 342 1.0 3.0 0.00 0.00 0.00 12 1005.8
20260509233401 105 43 1.0 6.0 0.00 0.00 0.00 12 1005.7
20260509232902 105 335 1.0 6.0 0.00 0.00 0.00 11 1005.8
20260509232402 105 300 1.0 4.0 0.00 0.00 0.00 10 1005.8
20260509231901 105 348 1.0 5.0 0.00 0.00 0.00 10 1005.8
20260509231402 105 352 1.0 5.0 0.00 0.00 0.00 11 1005.9
20260509230901 105 67 1.0 4.0 0.00 0.00 0.00 11 1006.0
20260509230356 106 63 0.0 3.0 0.00 0.00 0.00 10 1006.0
20260509225849 105 214 1.0 3.0 0.00 0.00 0.00 10 1006.1
20260509225344 105 20 1.0 3.0 0.00 0.00 0.00 10 1006.2
20260509224845 105 35 1.0 5.0 0.00 0.00 0.00 10 1006.3
20260509224611 105 330 1.0 5.0 0.00 0.00 0.00 10 1006.3
20260509223843 105 124 1.0 3.0 0.00 0.00 0.00 9 1006.4
20260509223342 105 122 1.0 4.0 0.00 0.00 0.00 10 1006.5
20260509222842 105 40 1.0 4.0 0.00 0.00 0.00 10 1006.4
20260509222342 105 200 2.0 5.0 0.00 0.00 0.00 9 1006.6
20260509222114 104 63 1.0 5.0 0.00 0.00 0.00 9 1006.7
20260509221342 104 316 2.0 4.0 0.00 0.00 0.00 10 1006.7
20260509220843 104 51 2.0 5.0 0.00 0.00 0.00 11 1006.8
20260509220341 103 46 2.0 5.0 0.00 0.00 0.00 11 1006.9
20260509215845 103 326 2.0 6.0 0.00 0.00 0.00 11 1007.1
20260509215341 103 302 2.0 7.0 0.00 0.00 0.00 11 1007.0
20260509214338 103 300 2.0 7.0 0.00 0.00 0.00 11 1007.2
20260509214100 103 344 2.0 5.0 0.00 0.00 0.00 10 1007.3
20260509213338 103 330 2.0 6.0 0.00 0.00 0.00 12 1007.4
20260509212834 103 77 2.0 6.0 0.00 0.00 0.00 11 1007.4
20260509212558 104 13 1.0 6.0 0.00 0.00 0.00 12 1007.6
20260509211831 103 94 1.0 5.0 0.00 0.00 0.00 13 1007.6
20260509211555 103 320 2.0 6.0 0.00 0.00 0.00 12 1007.7
20260509210830 103 41 2.0 6.0 0.00 0.00 0.00 13 1007.7
20260509210330 102 76 1.0 5.0 0.00 0.00 0.00 13 1007.8
20260509205830 103 77 1.0 5.0 0.00 0.00 0.00 13 1007.8
20260509205329 103 345 1.0 4.0 0.00 0.00 0.00 13 1007.9
20260509204831 102 11 1.0 5.0 0.00 0.00 0.00 14 1008.1
20260509204330 102 345 2.0 5.0 0.00 0.00 0.00 13 1008.1
20260509203830 102 340 2.0 6.0 0.00 0.00 0.00 13 1008.2
20260509203329 103 68 1.0 6.0 0.00 0.00 0.00 12 1008.2
20260509203058 103 113 1.0 4.0 0.00 0.00 0.00 13 1008.3
20260509202329 102 231 2.0 5.0 0.00 0.00 0.00 13 1008.3
20260509201830 101 341 2.0 5.0 0.00 0.00 0.00 13 1008.4
20260509201329 101 65 2.0 5.0 0.00 0.00 0.00 12 1008.4
20260509200829 101 38 2.0 5.0 0.00 0.00 0.00 13 1008.4
20260509200330 101 12 2.0 5.0 0.00 0.00 0.00 13 1008.5
20260509195826 101 54 2.0 6.0 0.00 0.00 0.00 12 1008.6
20260509194826 101 27 3.0 6.0 0.00 0.00 0.00 15 1008.6
20260509194558 100 49 3.0 9.0 0.00 0.00 0.00 15 1008.6
20260509193827 102 79 2.0 9.0 0.00 0.00 0.00 16 1008.7
20260509193326 102 260 2.0 6.0 0.00 0.00 0.00 17 1008.8
20260509192827 101 252 1.0 4.0 0.00 0.00 0.00 16 1008.9
20260509192325 100 300 1.0 4.0 0.00 0.00 0.00 16 1009.0
20260509191827 100 39 2.0 6.0 0.00 0.00 0.00 18 1009.1
20260509191326 100 267 1.0 6.0 0.00 0.00 0.00 18 1009.2
20260509190826 99 207 1.0 5.0 0.00 0.00 0.00 19 1009.2
20260509190325 98 70 1.0 5.0 0.00 0.00 0.00 19 1009.3
20260509185822 99 342 0.0 4.0 0.00 0.00 0.00 19 1009.4
20260509185323 98 328 0.0 2.0 0.00 0.00 0.00 21 1009.3
20260509185049 98 77 1.0 4.0 0.00 0.00 0.00 19 1009.4
20260509184319 97 63 2.0 6.0 0.00 0.00 0.00 19 1009.3
20260509183818 97 41 2.0 6.0 0.00 0.00 0.00 19 1009.4
20260509183318 98 338 1.0 6.0 0.00 0.00 0.00 20 1009.5
20260509182818 98 72 0.0 4.0 0.00 0.00 0.00 20 1009.5
20260509182318 98 45 1.0 3.0 0.00 0.00 0.00 20 1009.5
20260509181819 98 23 1.0 3.0 0.00 0.00 0.00 20 1009.5
20260509181600 97 210 0.0 2.0 0.00 0.00 0.00 20 1009.6
20260509180819 96 98 1.0 4.0 0.00 0.00 0.00 20 1009.6
20260509180317 95 117 1.0 4.0 0.00 0.00 0.00 21 1009.7
20260509175819 95 122 1.0 3.0 0.00 0.00 0.00 20 1009.6
20260509175316 95 158 1.0 3.0 0.00 0.00 0.00 20 1009.6
20260509174814 95 112 1.0 4.0 0.00 0.00 0.00 20 1009.7
20260509174316 95 198 2.0 5.0 0.00 0.00 0.00 21 1009.6
20260509173815 94 56 2.0 5.0 0.00 0.00 0.00 21 1009.7
20260509173314 94 79 1.0 4.0 0.00 0.00 0.00 22 1009.6
20260509172814 94 98 1.0 3.0 0.00 0.00 0.00 22 1009.7
20260509172311 94 122 1.0 4.0 0.00 0.00 0.00 22 1009.7
20260509171810 93 124 1.0 4.0 0.00 0.00 0.00 21 1009.7
20260509171310 93 112 1.0 4.0 0.00 0.00 0.00 22 1009.8
20260509171035 93 94 1.0 3.0 0.00 0.00 0.00 22 1009.7
20260509170310 93 160 1.0 5.0 0.00 0.00 0.00 23 1009.7
20260509170040 92 228 1.0 6.0 0.00 0.00 0.00 23 1009.7
20260509165310 91 165 1.0 6.0 0.00 0.00 0.00 27 1009.7
20260509164810 91 112 0.0 3.0 0.00 0.00 0.00 30 1009.6
20260509164311 90 23 0.0 3.0 0.00 0.00 0.00 31 1009.7
20260509163806 90 74 1.0 3.0 0.00 0.00 0.00 30 1009.7
20260509163306 89 146 0.0 3.0 0.00 0.00 0.00 31 1009.7
20260509162808 89 146 0.0 3.0 0.00 0.00 0.00 31 1009.7
20260509162307 88 79 1.0 4.0 0.00 0.00 0.00 32 1009.7
20260509161306 88 51 1.0 4.0 0.00 0.00 0.00 33 1009.6
20260509160806 88 77 1.0 3.0 0.00 0.00 0.00 35 1009.6
20260509160306 87 63 0.0 2.0 0.00 0.00 0.00 34 1009.7
20260509155806 87 90 0.0 3.0 0.00 0.00 0.00 35 1009.6
20260509155306 87 65 0.0 3.0 0.00 0.00 0.00 36 1009.6
20260509154804 86 152 1.0 3.0 0.00 0.00 0.00 37 1009.7
20260509154303 85 123 1.0 3.0 0.00 0.00 0.00 36 1009.7
20260509154029 85 134 1.0 3.0 0.00 0.00 0.00 39 1009.6
20260509153526 85 119 1.0 4.0 0.00 0.00 0.00 38 1009.6
20260509152527 84 233 2.0 4.0 0.00 0.00 0.00 39 1009.7
20260509151801 84 177 1.0 4.0 0.00 0.00 0.00 38 1009.7
20260509151302 84 160 1.0 3.0 0.00 0.00 0.00 39 1009.7
20260509150801 84 179 1.0 3.0 0.00 0.00 0.00 41 1009.7
20260509150301 83 219 1.0 3.0 0.00 0.00 0.00 41 1009.6
20260509145801 83 172 0.0 2.0 0.00 0.00 0.00 41 1009.7
20260509145305 83 223 0.0 2.0 0.00 0.00 0.00 42 1009.7
20260509144303 82 174 0.0 1.0 0.00 0.00 0.00 42 1009.5
20260509143801 81 126 0.0 2.0 0.00 0.00 0.00 43 1009.5
20260509143531 80 170 0.0 2.0 0.00 0.00 0.00 44 1009.5
20260509142801 80 153 0.0 2.0 0.00 0.00 0.00 45 1009.4
20260509142306 79 202 0.0 2.0 0.00 0.00 0.00 46 1009.3
20260509141803 78 174 0.0 1.0 0.00 0.00 0.00 49 1009.2
20260509141301 77 138 0.0 1.0 0.00 0.00 0.00 50 1009.2
20260509140801 77 145 0.0 1.0 0.00 0.00 0.00 51 1009.2
20260509140304 76 207 0.0 1.0 0.00 0.00 0.00 52 1009.2
20260509135803 74 207 0.0 1.0 0.00 0.00 0.00 53 1009.1
20260509134802 73 182 0.0 2.0 0.00 0.00 0.00 55 1009.2
20260509134302 72 223 0.0 0.0 0.00 0.00 0.00 56 1009.3
20260509133802 71 125 0.0 0.0 0.00 0.00 0.00 58 1009.2
20260509133301 71 125 0.0 0.0 0.00 0.00 0.00 58 1009.1
20260509132802 71 125 0.0 0.0 0.00 0.00 0.00 57 1009.1
20260509132306 71 125 0.0 1.0 0.00 0.00 0.00 56 1009.1
20260509131801 71 125 0.0 1.0 0.00 0.00 0.00 56 1009.0
20260509131301 70 125 0.0 0.0 0.00 0.00 0.00 55 1008.9
20260509130802 70 125 0.0 1.0 0.00 0.00 0.00 56 1008.9
20260509130301 70 125 0.0 1.0 0.00 0.00 0.00 56 1009.0
20260509125802 71 143 0.0 1.0 0.00 0.00 0.00 55 1008.9
20260509125301 70 158 0.0 2.0 0.00 0.00 0.00 55 1008.8
20260509124804 70 175 0.0 2.0 0.00 0.00 0.00 56 1008.9
20260509124301 70 172 0.0 2.0 0.00 0.00 0.00 56 1008.9
20260509123801 70 218 0.0 1.0 0.00 0.00 0.00 56 1008.9
20260509123301 70 174 0.0 1.0 0.00 0.00 0.00 57 1008.9
20260509122805 70 174 0.0 1.0 0.00 0.00 0.00 58 1008.8
20260509122305 70 176 0.0 1.0 0.00 0.00 0.00 58 1008.7
20260509121802 70 176 0.0 1.0 0.00 0.00 0.00 59 1008.7
20260509121301 70 176 0.0 1.0 0.00 0.00 0.00 59 1008.7
20260509121028 70 176 0.0 1.0 0.00 0.00 0.00 59 1008.6
20260509115802 70 176 0.0 0.0 0.00 0.00 0.00 58 1008.5
20260509115306 70 176 0.0 0.0 0.00 0.00 0.00 58 1008.3
20260509114802 70 179 0.0 0.0 0.00 0.00 0.00 58 1008.5
20260509114301 71 183 0.0 1.0 0.00 0.00 0.00 58 1008.4
20260509113755 71 184 0.0 1.0 0.00 0.00 0.00 58 1008.4
20260509113249 71 162 0.0 0.0 0.00 0.00 0.00 57 1008.4
20260509112745 71 162 0.0 0.0 0.00 0.00 0.00 57 1008.4
20260509112238 72 162 0.0 0.0 0.00 0.00 0.00 56 1008.4
20260509111731 72 162 0.0 1.0 0.00 0.00 0.00 56 1008.4
20260509111229 72 162 0.0 1.0 0.00 0.00 0.00 56 1008.4
20260509110729 72 166 0.0 2.0 0.00 0.00 0.00 56 1008.4
20260509110229 72 172 0.0 2.0 0.00 0.00 0.00 56 1008.5
20260509105731 72 176 0.0 2.0 0.00 0.00 0.00 56 1008.5
20260509105229 73 176 0.0 1.0 0.00 0.00 0.00 56 1008.6
20260509104730 73 174 0.0 1.0 0.00 0.00 0.00 55 1008.6
20260509104229 73 178 0.0 1.0 0.00 0.00 0.00 55 1008.5
20260509103729 73 208 0.0 1.0 0.00 0.00 0.00 55 1008.5
20260509103230 73 224 0.0 1.0 0.00 0.00 0.00 54 1008.6
20260509102956 73 224 0.0 1.0 0.00 0.00 0.00 54 1008.6
20260509102228 74 224 0.0 2.0 0.00 0.00 0.00 54 1008.6
20260509101729 74 224 1.0 2.0 0.00 0.00 0.00 53 1008.6
20260509101229 74 211 1.0 2.0 0.00 0.00 0.00 53 1008.6
20260509100730 74 212 1.0 2.0 0.00 0.00 0.00 53 1008.6
20260509100229 73 217 0.0 2.0 0.00 0.00 0.00 54 1008.7
20260509095958 73 215 0.0 2.0 0.00 0.00 0.00 55 1008.7
20260509095229 73 171 0.0 0.0 0.00 0.00 0.00 54 1008.7
20260509094730 74 170 0.0 0.0 0.00 0.00 0.00 54 1008.7
20260509094230 74 171 0.0 0.0 0.00 0.00 0.00 54 1008.8
20260509093729 74 172 0.0 0.0 0.00 0.00 0.00 53 1008.8